Casablanca, Morocco

1:18 AM +01 on December 10, 2018 (GMT +0100)
Casablanca

Weather History for GMMC - October, 2018

Change the Weather History Date:

Friday, October 12, 2018

  Actual Average (GMMN) Record (GMMN)
Temperature  
Mean Temperature 70 °F -  
Max Temperature 79 °F 73 °F 103 °F (2017)
Min Temperature 62 °F 54 °F 50 °F (1998)
Cooling Degree Days 6    
Growing Degree Days 20 (Base 50)    
Moisture  
Dew Point 62 °F    
Average Humidity 69    
Maximum Humidity 94    
Minimum Humidity 43    
Precipitation  
Precipitation 0.00 in 0.06 in - ()
Sea Level Pressure  
Sea Level Pressure 30.12 in    
Wind  
Wind Speed 7 mph ()    
Max Wind Speed 16 mph    
Max Gust Speed -    
Visibility 5.9 miles    
Events      
Averages and records for this station are not official NWS values.
T = Trace of Precipitation, MM = Missing Value Source: Averaged Metar Reports

Daily Weather History Graph

Daily Weather History Graph

Search for Another Location

Airport or City:

Astronomy

Oct. 12, 2018 Rise Set
Actual Time 7:32 AM +01 7:00 PM +01
Civil Twilight 7:07 AM +01 7:25 PM +01
Nautical Twilight 6:39 AM +01 7:54 PM +01
Astronomical Twilight 6:10 AM +01 8:23 PM +01
Moon 10:46 AM +01 (10/12) 9:36 PM +01 (10/12)
Length of Visible Light 12h 17m
Length of Day
11h 27m
Waxing Crescent, 13% of the Moon is Illuminated
Oct 12
Waxing Crescent
Oct 16
First Quarter
Oct 24
Full
Oct 31
Last Quarter
Nov 7
New

Hourly Weather History & Observations

Time (+01) Temp. Dew Point Humidity Pressure Visibility Wind Dir Wind Speed Gust Speed Precip Events Conditions
7:00 AM 63 °F 61 °F 92% 30.11 in 6 mi SSW 2.3 mph - -   Clear
7:00 AM 62.6 °F 60.8 °F 94% 30.09 in - SSW 2.3 mph - N/A   Clear
8:00 AM 62.6 °F 60.8 °F 94% 30.12 in - South 2.3 mph - N/A   Clear
9:00 AM 68.0 °F 62.6 °F 83% 30.15 in 5.0 mi North 3.5 mph - N/A   Unknown
10:00 AM 73 °F 62 °F 59% 30.18 in 6 mi NNE 5.8 mph - -   Clear
10:00 AM 73.4 °F 60.8 °F 65% 30.15 in - NNE 5.8 mph - N/A   Clear
11:00 AM 75.2 °F 60.8 °F 61% 30.18 in - NE 6.9 mph - N/A   Clear
12:00 PM 78.8 °F 59.0 °F 51% 30.15 in - NE 10.4 mph - N/A   Clear
1:00 PM 78 °F 59 °F 43% 30.16 in 6 mi ENE 11.5 mph - -   Clear
1:00 PM 78.8 °F 59.0 °F 51% 30.15 in - ENE 11.5 mph - N/A   Clear
2:00 PM 78.8 °F 59.0 °F 51% 30.12 in - NE 11.5 mph - N/A   Clear
4:00 PM 77 °F 64 °F 57% 30.12 in 6 mi NNE 16.1 mph - -   Clear
4:00 PM 77.0 °F 64.4 °F 65% 30.09 in - NNE 16.1 mph - N/A   Clear
5:00 PM 77.0 °F 64.4 °F 65% 30.09 in - NNE 11.5 mph - N/A   Clear
6:00 PM 75.2 °F 64.4 °F 69% 30.09 in - NNE 15.0 mph - N/A   Clear
7:00 PM 73 °F 65 °F 70% 30.11 in 6 mi NE 13.8 mph - -   Clear
7:00 PM 73.4 °F 64.4 °F 73% 30.09 in - NE 13.8 mph - N/A   Clear
8:00 PM 71.6 °F 68.0 °F 88% 30.09 in 6.2 mi ENE 10.4 mph - N/A   Scattered Clouds
9:00 PM 71.6 °F 68.0 °F 88% 30.12 in 6.2 mi NE 9.2 mph - N/A   Scattered Clouds